{"data":{"norad_id":59285,"epoch":"2026-05-25T04:45:21.773952Z","epoch_age_seconds":48032,"freshness":"FRESH","line1":"1 59285U 24052F   26145.19816868  .00000006  00000+0  66838-4 0  9997","line2":"2 59285  50.0115 300.3709 0005340 100.7480 259.4036 14.27980642115871","mean_motion":14.27980642,"eccentricity":0.000534,"inclination_deg":50.0115,"raan_deg":300.3709,"arg_perigee_deg":100.748,"mean_anomaly_deg":259.4036,"bstar":6.6838e-5,"rev_number":11587,"period_min":100.84170314684,"perigee_km":794.65635851866,"apogee_km":802.3209947413,"semimajor_km":7176.62567663,"source":"CELESTRAK","updated_at":"2026-05-25T13:38:01.313747Z"}}